This demonstration page uses our WeatherBlox Daily Observations layout. Learn more.

Left ArrowRight Arrow

39.08367, -84.50855

Hourly Observations for December 3, 2020

Temp ( °F °C ) Dew Point ( °F °C ) Humidity (%) Winds ( mph kmh ) Pressure ( in mb ) Visibility ( mi km ) Precip ( " mm )
12:01 am 00:01 Mostly Cloudy with Mist and Fog 24 -4.4 22 -5.6 91 91 Calm 30.39 1029 1 1.60934 0 0
12:08 am 00:08 Mostly Cloudy with Freezing Fog 25 -3.9 24 -4.4 96 96 Calm 30.39 1029 0.25 0.402335 0 0
12:11 am 00:11 Clear with Freezing Fog 26 -3.3 24 -4.4 92 92 Calm 30.39 1029 0.5 0.80467 0 0
12:25 am 00:25 Clear with Freezing Fog 25 -3.9 23 -5 92 92 Calm 30.39 1029 0.25 0.402335 0 0
12:33 am 00:33 Clear with Mist and Fog 25 -3.9 24 -4.4 96 96 Calm 30.39 1029 0.75 1.207005 0 0
12:53 am 00:53 Clear with Mist and Fog 24 -4.4 23 -5 96 96 Calm 30.36 1028 1 1.60934 0 0
1:12 am 01:12 Mostly Clear with Mist and Fog 24 -4.4 22 -5.6 91 91 Calm 30.38 1029 2.5 4.02335 0 0
1:20 am 01:20 Partly Cloudy with Mist and Fog 24 -4.4 21 -6.1 88 88 Calm 30.38 1029 3 4.82802 0 0
1:24 am 01:24 Mostly Cloudy with Mist and Fog 24 -4.4 21 -6.1 88 88 Calm 30.38 1029 1 1.60934 0 0
1:31 am 01:31 Partly Cloudy with Mist and Fog 25 -3.9 23 -5 92 92 Calm 30.37 1028 1.5 2.41401 0 0
1:47 am 01:47 Partly Cloudy with Mist and Fog 25 -4 23 -5 93 93 Calm 30.38 1029 3 4.82802 0 0
1:53 am 01:53 Mostly Cloudy with Mist and Fog 25 -3.9 22 -5.6 88 88 Calm 30.35 1028 3 4.82802 0 0
1:55 am 01:55 Mostly Cloudy with Mist and Fog 25 -3.9 23 -5 92 92 Calm 30.38 1029 1.5 2.41401 0 0
2:03 am 02:03 Mostly Cloudy with Freezing Fog 26 -3.3 25 -3.9 96 96 Calm 30.37 1028 0.5 0.80467 0 0
2:38 am 02:38 Cloudy with Mist and Fog 26 -3.3 25 -3.9 96 96 Calm 30.37 1028 1 1.60934 0 0
2:46 am 02:46 Mostly Cloudy with Freezing Fog 27 -2.8 26 -3.3 96 96 SW 3 6 30.36 1028 0.5 0.80467 0 0
2:53 am 02:53 Mostly Cloudy with Freezing Fog 26 -3.3 25 -3.9 96 96 S 3 6 30.34 1027 0.5 0.80467 0 0
3:10 am 03:10 Partly Cloudy with Mist and Fog 26 -3.3 25 -3.9 96 96 Calm 30.37 1028 2 3.21868 0 0
3:19 am 03:19 Mostly Clear with Mist and Fog 26 -3.3 25 -3.9 96 96 Calm 30.37 1028 3 4.82802 0 0
3:25 am 03:25 Clear with Mist and Fog 26 -3.3 24 -4.4 92 92 Calm 30.37 1028 1.75 2.816345 0 0
3:37 am 03:37 Clear with Mist and Fog 27 -2.8 26 -3.3 96 96 Calm 30.36 1028 2.5 4.02335 0 0
3:44 am 03:44 Clear with Mist and Fog 27 -2.8 26 -3.3 96 96 Calm 30.36 1028 3 4.82802 0 0
3:53 am 03:53 Clear with Mist and Fog 27 -2.8 26 -3.3 96 96 Calm 30.33 1027 4 6.43736 0 0
4:53 am 04:53 Clear 28 -2.2 25 -3.9 88 88 Calm 30.32 1027 7 11.26538 0 0
5:53 am 05:53 Clear with Mist and Fog 26 -3.3 25 -3.9 96 96 Calm 30.32 1027 6 9.65604 0 0
6:53 am 06:53 Clear 27 -2.8 25 -3.9 92 92 WSW 3 6 30.32 1027 10 16.0934 0 0
7:53 am 07:53 Sunny 28 -2.2 26 -3.3 92 92 Calm 30.34 1028 10 16.0934 0 0
8:53 am 08:53 Sunny 29 -1.7 27 -2.8 92 92 Calm 30.34 1027 10 16.0934 0 0
9:53 am 09:53 Sunny 32 0 29 -1.7 88 88 Calm 30.35 1028 10 16.0934 0 0
10:53 am 10:53 Sunny 35 1.7 30 -1.1 82 82 Calm 30.34 1027 10 16.0934 0 0
11:53 am 11:53 Mostly Sunny 37 2.8 28 -2.2 70 70 S 5 7 30.31 1026 10 16.0934 0 0
12:53 pm 12:53 Partly Cloudy 39 3.9 30 -1.1 70 70 S 7 11 30.27 1025 10 16.0934 0 0
1:53 pm 13:53 Cloudy 40 4.4 30 -1.1 68 68 S 3 6 30.25 1024 10 16.0934 0 0
2:53 pm 14:53 Mostly Cloudy 42 5.6 30 -1.1 62 62 SSE 6 9 30.22 1023 10 16.0934 0 0
3:53 pm 15:53 Partly Cloudy 41 5 30 -1.1 65 65 SSE 5 7 30.22 1023 10 16.0934 0 0
4:53 pm 16:53 Sunny 40 4.4 30 -1.1 68 68 S 6 9 30.22 1024 10 16.0934 0 0
5:53 pm 17:53 Mostly Cloudy 37 2.8 30 -1.1 76 76 NE 5 7 30.19 1022 10 16.0934 0 0
6:53 pm 18:53 Cloudy 39 3.9 31 -0.6 73 73 SSW 5 7 30.21 1023 10 16.0934 0 0
7:53 pm 19:53 Cloudy 39 3.9 32 0 76 76 SSW 5 7 30.19 1023 10 16.0934 0 0
8:53 pm 20:53 Cloudy 39 3.9 31 -0.6 73 73 SW 5 7 30.19 1022 10 16.0934 0 0
9:53 pm 21:53 Cloudy 39 3.9 32 0 76 76 Calm 30.17 1022 10 16.0934 0 0
10:53 pm 22:53 Cloudy 39 3.9 33 0.6 79 79 Calm 30.16 1021 10 16.0934 0 0
11:53 pm 23:53 Cloudy 38 3.3 33 0.6 83 83 Calm 30.16 1021 10 16.0934 0 0

Powered by AerisWeather